Content
SEND FEEDBACK

Daily
Averages
Monthly
Summary
United States of America

UMATAC, GUAM


Home > North America > United States > Guam
Elevation: 58 meters     Latitude: 13 17N     Longitude: 144 40E

WEATHER
 
SELECT A DAY
Number of Records: 342,554;   Date Range: 1/1/95 - 9/16/14
 
SHARE

PRINT THIS DATA

[ ← Previous Day ]
WEATHER ALMANAC - 24 FEBRUARY, 2014
[ Next Day → ]
[ °F ]   °C
Weather ElementAverageHighLow
Temperature26.1 °C28.4 °C (10:58 am)24 °C (5:40 am)
Dewpoint22.4 °C25 °C (5:25 am) (7:00 pm)
Humidity88.3 %100 % (5:25 am)78 % (10:58 am)
Barometer1011.2 hPa1012.9 hPa (9:41 am)1008.8 hPa (2:58 pm)
Wind Speed22.9 km/h33.3 km/h (12:42 pm)
Wind Gust44.4 km/h (2:03 pm)
Weather ElementAverage
Visibility15.8 km
Wind DirectionENE (52 °)

Weather ElementTotal
Precipitation2.54 mm
Cooling Degree Days7.9 (Base 18.3)
Growing Degree Days16.2 (Base 10)
Averaged from 80 records on 24 February, 2014
WEATHER CONDITIONS BREAKOUT
WIND DIRECTION BREAKOUT
WEATHER BY HOUR - 24 FEBRUARY, 2014
[ °F ]   °C
Local TimeTemperatureDewpointHumidityBarometerVisibilityWind DirectionWind SpeedGust SpeedPrecipitationEventsConditions
12:43 AM25 °C24 °C94 %1011.5 hPa16.1 kmNE (50°)18.5 km/hMostly Cloudy
12:58 AM25.4 °C24.5 °C95 %1010.5 hPa16.1 kmENE (60°)25.9 km/h33.3 km/hMostly Cloudy
1:03 AM25 °C24 °C94 %1011.5 hPa16.1 kmENE (60°)18.5 km/h33.3 km/hMostly Cloudy
1:08 AM25 °C24 °C94 %1011.5 hPa16.1 kmENE (60°)20.4 km/h33.3 km/hScattered Clouds
1:21 AM25 °C24 °C94 %1011.2 hPa12.9 kmENE (60°)16.7 km/hRainRain
1:31 AM25 °C24 °C94 %1011.2 hPa16.1 kmENE (60°)16.7 km/hRainLight Rain
1:32 AM25 °C24 °C94 %1011.2 hPa16.1 kmENE (60°)20.4 km/hMostly Cloudy
1:37 AM25 °C24 °C94 %1011.2 hPa16.1 kmENE (60°)22.2 km/hScattered Clouds
1:58 AM24.9 °C24 °C95 %1009.8 hPa16.1 kmENE (60°)20.4 km/h0 mmScattered Clouds
2:08 AM25 °C24 °C94 %1010.8 hPa16.1 kmENE (60°)20.4 km/hMostly Cloudy
2:23 AM25 °C24 °C94 %1010.5 hPa16.1 kmENE (60°)18.5 km/hScattered Clouds
2:58 AM24.7 °C23.4 °C92 %1009.5 hPa16.1 kmENE (60°)20.4 km/hPartly Cloudy
3:58 AM24.7 °C24.4 °C98 %1009.5 hPa16.1 kmENE (60°)20.4 km/hScattered Clouds
4:58 AM24.7 °C23.6 °C94 %1009.5 hPa16.1 kmENE (60°)18.5 km/hClear
5:08 AM25 °C24 °C94 %1010.5 hPa16.1 kmENE (60°)18.5 km/hRainLight Rain
5:17 AM25 °C24 °C94 %1010.5 hPa16.1 kmNE (50°)16.7 km/hScattered Clouds
5:25 AM25 °C25 °C100 %1010.5 hPa12.9 kmNE (40°)22.2 km/h31.5 km/hRainLight Rain
5:30 AM25 °C25 °C100 %1010.8 hPa9.7 kmNE (50°)18.5 km/h31.5 km/hRainLight Rain
5:35 AM25 °C25 °C100 %1010.8 hPa11.3 kmNE (50°)20.4 km/hRainLight Rain
5:40 AM24 °C24 °C100 %1010.8 hPa12.9 kmNE (40°)22.2 km/h27.8 km/hRainLight Rain
5:45 AM25 °C-17.8 °C1010.8 hPa12.9 kmNE (50°)24.1 km/h35.2 km/hRainLight Rain
5:50 AM25 °C-17.8 °C1010.8 hPa16.1 kmNE (50°)24.1 km/h35.2 km/hLight Drizzle
5:52 AM24 °C-17.8 °C1010.8 hPa16.1 kmNE (50°)22.2 km/h35.2 km/hMostly Cloudy
5:57 AM25 °C24 °C94 %1010.8 hPa16.1 kmENE (60°)20.4 km/hScattered Clouds
5:58 AM24.5 °C24.4 °C99 %1009.8 hPa16.1 kmENE (60°)22.2 km/h2.54 mmScattered Clouds
6:53 AM25 °C23 °C89 %1011.5 hPa16.1 kmENE (60°)18.5 km/hMostly Cloudy
6:58 AM24.8 °C24.5 °C98 %1011.2 hPa16.1 kmENE (60°)18.5 km/hScattered Clouds
7:58 AM25.6 °C24.4 °C93 %1011.2 hPa16.1 kmENE (60°)14.8 km/h33.3 km/hScattered Clouds
8:58 AM26.7 °C24.2 °C86 %1011.5 hPa16.1 kmENE (60°)24.1 km/hScattered Clouds
9:41 AM27 °C25 °C89 %1012.9 hPa16.1 kmNE (40°)22.2 km/hMostly Cloudy
9:46 AM27 °C25 °C89 %1012.9 hPa16.1 kmNE (40°)18.5 km/h35.2 km/hScattered Clouds
9:55 AM27 °C25 °C89 %1012.9 hPa16.1 kmNE (50°)24.1 km/h33.3 km/hRainLight Rain
9:58 AM26.8 °C24.8 °C89 %1011.9 hPa16.1 kmNE (50°)27.8 km/h35.2 km/h0 mmRainLight Rain
10:05 AM27 °C24 °C84 %1012.9 hPa16.1 kmENE (60°)27.8 km/h37 km/hScattered Clouds
10:58 AM28.4 °C24.2 °C78 %1011.5 hPa16.1 kmENE (70°)20.4 km/h33.3 km/h0 mmClear
11:43 AM28 °C24 °C79 %1012.2 hPa16.1 kmENE (60°)18.5 km/h33.3 km/hLight Drizzle
11:48 AM28 °C24 °C79 %1012.2 hPa16.1 kmNE (50°)24.1 km/h33.3 km/hLight Drizzle
11:52 AM27 °C25 °C89 %1012.2 hPa16.1 kmENE (60°)20.4 km/h33.3 km/hMostly Cloudy
11:57 AM27 °C24 °C84 %1012.2 hPa16.1 kmNE (50°)24.1 km/h33.3 km/hScattered Clouds
11:58 AM27.1 °C24.4 °C85 %1011.2 hPa16.1 kmNE (50°)25.9 km/h33.3 km/h0 mmScattered Clouds
12:13 PM28 °C24 °C79 %1011.9 hPa16.1 kmENE (60°)25.9 km/h37 km/hMostly Cloudy
12:18 PM28 °C24 °C79 %1011.9 hPa16.1 kmENE (60°)24.1 km/hScattered Clouds
12:38 PM28 °C25 °C84 %1011.5 hPa16.1 kmENE (60°)25.9 km/h38.9 km/hMostly Cloudy
12:42 PM28 °C25 °C84 %1011.2 hPa12.9 kmENE (60°)33.3 km/h40.7 km/hRainLight Rain
12:55 PM26 °C25 °C94 %1011.2 hPa14.5 kmENE (60°)24.1 km/hMostly Cloudy
12:58 PM25.9 °C24.9 °C94 %1010.2 hPa16.1 kmENE (60°)18.5 km/h31.5 km/h0 mmMostly Cloudy
1:58 PM27.9 °C24.7 °C83 %1009.5 hPa16.1 kmENE (60°)25.9 km/h38.9 km/hScattered Clouds
2:03 PM27 °C23 °C79 %1010.5 hPa16.1 kmNE (40°)29.6 km/h44.4 km/hMostly Cloudy
2:13 PM27 °C23 °C79 %1010.5 hPa16.1 kmNE (40°)18.5 km/hMostly Cloudy
2:58 PM27.5 °C24.4 °C83 %1008.8 hPa16.1 kmENE (60°)22.2 km/h33.3 km/hScattered Clouds
3:08 PM28 °C24 °C79 %1009.8 hPa16.1 kmNE (40°)22.2 km/hMostly Cloudy
3:48 PM27 °C24 °C84 %1009.8 hPa16.1 kmNE (50°)24.1 km/hScattered Clouds
3:58 PM27.2 °C23.7 °C81 %1008.8 hPa16.1 kmNE (50°)25.9 km/hPartly Cloudy
4:07 PM28 °C25 °C84 %1009.8 hPa16.1 kmENE (60°)27.8 km/h33.3 km/hRainLight Rain
4:21 PM26 °C24 °C89 %1010.2 hPa16.1 kmNE (50°)20.4 km/hPartly Cloudy
4:58 PM26.7 °C23.8 °C84 %1009.5 hPa16.1 kmNE (50°)24.1 km/h35.2 km/h0 mmScattered Clouds
5:38 PM26 °C23 °C83 %1010.8 hPa16.1 kmNE (40°)27.8 km/h35.2 km/hMostly Cloudy
5:48 PM25 °C24 °C94 %1010.8 hPa16.1 kmNNE (30°)24.1 km/h37 km/hMostly Cloudy
5:58 PM25.4 °C24.1 °C92 %1009.8 hPa16.1 kmNNE (20°)14.8 km/hMostly Cloudy
6:48 PM26 °C24 °C89 %1011.2 hPa16.1 kmNE (50°)22.2 km/h33.3 km/hMostly Cloudy
6:53 PM26 °C24 °C89 %1011.5 hPa16.1 kmNE (50°)25.9 km/hMostly Cloudy
6:58 PM26.2 °C23.6 °C86 %1010.5 hPa16.1 kmNE (50°)25.9 km/h35.2 km/hScattered Clouds
7:07 PM26 °C24 °C89 %1011.5 hPa16.1 kmNE (50°)22.2 km/h35.2 km/hRainLight Rain
7:16 PM26 °C24 °C89 %1011.5 hPa16.1 kmNE (50°)27.8 km/hMostly Cloudy
7:26 PM26 °C24 °C89 %1011.9 hPa16.1 kmNE (50°)29.6 km/h38.9 km/hMostly Cloudy
7:31 PM26 °C24 °C89 %1011.9 hPa16.1 kmNE (50°)24.1 km/h38.9 km/hMostly Cloudy
7:41 PM26 °C24 °C89 %1011.9 hPa16.1 kmNE (50°)25.9 km/h38.9 km/hMostly Cloudy
7:51 PM26 °C23 °C83 %1011.9 hPa16.1 kmNE (50°)25.9 km/h40.7 km/hMostly Cloudy
7:58 PM26.1 °C23.4 °C85 %1011.2 hPa16.1 kmNE (50°)25.9 km/h37 km/h0 mmMostly Cloudy
8:03 PM26 °C23 °C83 %1011.9 hPa16.1 kmNE (40°)24.1 km/h37 km/hScattered Clouds
8:53 PM26 °C23 °C83 %1012.2 hPa16.1 kmNE (40°)25.9 km/h38.9 km/hMostly Cloudy
8:58 PM26 °C22.7 °C82 %1011.5 hPa16.1 kmNE (40°)22.2 km/h38.9 km/hMostly Cloudy
9:13 PM26 °C23 °C83 %1012.5 hPa16.1 kmNE (50°)25.9 km/hMostly Cloudy
9:23 PM26 °C23 °C83 %1012.5 hPa16.1 kmNE (40°)25.9 km/h33.3 km/hMostly Cloudy
9:58 PM25.9 °C23 °C84 %1011.5 hPa16.1 kmNE (40°)24.1 km/h35.2 km/hMostly Cloudy
10:08 PM26 °C23 °C83 %1012.5 hPa16.1 kmNE (40°)25.9 km/h38.9 km/hScattered Clouds
10:53 PM26 °C23 °C83 %1012.5 hPa16.1 kmNE (50°)25.9 km/h38.9 km/hMostly Cloudy
10:58 PM25.8 °C22.9 °C84 %1011.5 hPa16.1 kmNE (50°)27.8 km/h38.9 km/hMostly Cloudy
11:13 PM26 °C23 °C83 %1012.5 hPa16.1 kmNE (50°)24.1 km/hScattered Clouds
11:58 PM25.5 °C22.8 °C85 %1011.2 hPa16.1 kmENE (60°)24.1 km/h38.9 km/hPartly Cloudy
Hourly data recorded from PGUA, located 0 kilometers away from Umatac, Guam







STORIES FROM OUR PARTNERS